When you browse on this site, cookies collect data to enhance your experience and personalize the content and advertising you see.
Visit our Privacy Policy to learn more. By continuing to use the site, you agree to this use of cookies and data.

Hourly Weather Malopole

Today, 7 July, Tuesday

Time Temperature Precipitation Wind Pressure Humidity
00:00 +15°C° 0 mm 4 mps 750 mmHg 66%
01:00 +15°C° 0 mm 4 mps 750 mmHg 70%
02:00 +14°C° 0 mm 4 mps 750 mmHg 72%
03:00 +14°C° 0 mm 3 mps 750 mmHg 73%
04:00 +14°C° 0 mm 3 mps 750 mmHg 75%
05:00 +14°C° 0 mm 4 mps 751 mmHg 75%
06:00 +14°C° 0 mm 5 mps 751 mmHg 74%
07:00 +14°C° 0 mm 5 mps 752 mmHg 74%
08:00 +15°C° 0 mm 5 mps 752 mmHg 70%
09:00 +16°C° 0 mm 5 mps 752 mmHg 67%
10:00 +17°C° 0 mm 5 mps 752 mmHg 63%
11:00 +17°C° 0.1 mm 5 mps 752 mmHg 61%
12:00 +17°C° 0.1 mm 6 mps 752 mmHg 59%
13:00 +19°C° 0.1 mm 6 mps 752 mmHg 57%
14:00 +19°C° 0.1 mm 6 mps 752 mmHg 57%
15:00 +19°C° 0.1 mm 5 mps 752 mmHg 57%
16:00 +19°C° 0.1 mm 5 mps 752 mmHg 56%
17:00 +18°C° 0 mm 4 mps 752 mmHg 61%
18:00 +17°C° 0 mm 4 mps 752 mmHg 65%
19:00 +16°C° 0 mm 3 mps 752 mmHg 69%
20:00 +14°C° 0 mm 3 mps 753 mmHg 71%
21:00 +14°C° 0 mm 2 mps 753 mmHg 73%
22:00 +13°C° 0 mm 2 mps 753 mmHg 75%
23:00 +13°C° 0 mm 2 mps 753 mmHg 77%

Tomorrow, 8 July, Wednesday

Time Temperature Precipitation Wind Pressure Humidity
00:00 +12°C° 0 mm 2 mps 753 mmHg 78%
01:00 +12°C° 0 mm 2 mps 753 mmHg 80%
02:00 +12°C° 0 mm 2 mps 753 mmHg 80%
03:00 +12°C° 0 mm 2 mps 752 mmHg 79%
04:00 +11°C° 0 mm 3 mps 752 mmHg 79%
05:00 +12°C° 0 mm 3 mps 752 mmHg 75%
06:00 +14°C° 0 mm 4 mps 752 mmHg 72%
07:00 +15°C° 0 mm 5 mps 752 mmHg 68%
08:00 +14°C° 0.1 mm 5 mps 752 mmHg 72%
09:00 +14°C° 0.1 mm 4 mps 752 mmHg 77%
10:00 +13°C° 0.1 mm 4 mps 752 mmHg 81%
11:00 +15°C° 0.1 mm 5 mps 752 mmHg 75%
12:00 +16°C° 0.1 mm 5 mps 752 mmHg 69%
13:00 +17°C° 0.1 mm 6 mps 752 mmHg 62%
14:00 +17°C° 0.1 mm 6 mps 752 mmHg 63%
15:00 +17°C° 0.1 mm 6 mps 752 mmHg 64%
16:00 +17°C° 0.1 mm 6 mps 752 mmHg 65%
17:00 +16°C° 0.2 mm 5 mps 752 mmHg 70%
18:00 +15°C° 0.2 mm 5 mps 752 mmHg 75%
19:00 +15°C° 0.2 mm 4 mps 752 mmHg 79%
20:00 +14°C° 0 mm 4 mps 752 mmHg 82%
21:00 +13°C° 0 mm 4 mps 753 mmHg 85%
22:00 +13°C° 0 mm 3 mps 753 mmHg 88%
23:00 +12°C° 0 mm 3 mps 753 mmHg 90%

Day after tomorrow, 9 July, Thursday

Time Temperature Precipitation Wind Pressure Humidity
00:00 +11°C° 0 mm 3 mps 754 mmHg 92%
01:00 +11°C° 0 mm 3 mps 754 mmHg 94%
02:00 +11°C° 0 mm 3 mps 754 mmHg 94%
03:00 +10°C° 0 mm 2 mps 754 mmHg 95%
04:00 +10°C° 0 mm 2 mps 754 mmHg 96%
05:00 +13°C° 0 mm 2 mps 754 mmHg 91%
06:00 +14°C° 0 mm 2 mps 755 mmHg 86%
07:00 +14°C° 0 mm 3 mps 755 mmHg 81%
08:00 +17°C° 0 mm 3 mps 755 mmHg 73%
09:00 +18°C° 0 mm 3 mps 755 mmHg 66%
10:00 +19°C° 0 mm 3 mps 755 mmHg 58%
11:00 +20°C° 0.1 mm 3 mps 755 mmHg 57%
12:00 +20°C° 0.1 mm 3 mps 755 mmHg 56%
13:00 +21°C° 0.1 mm 3 mps 755 mmHg 55%
14:00 +21°C° 0.1 mm 3 mps 754 mmHg 54%
15:00 +21°C° 0.1 mm 2 mps 754 mmHg 54%
16:00 +21°C° 0.1 mm 2 mps 754 mmHg 54%
17:00 +20°C° 0.1 mm 2 mps 754 mmHg 61%
18:00 +19°C° 0.1 mm 2 mps 754 mmHg 67%
19:00 +18°C° 0.1 mm 2 mps 754 mmHg 74%
20:00 +18°C° 0 mm 2 mps 754 mmHg 77%
21:00 +17°C° 0 mm 2 mps 754 mmHg 80%
22:00 +16°C° 0 mm 2 mps 754 mmHg 83%
23:00 +16°C° 0 mm 2 mps 754 mmHg 84%

10 July, Friday

Time Temperature Precipitation Wind Pressure Humidity
00:00 +16°C° 0 mm 2 mps 754 mmHg 85%
01:00 +16°C° 0 mm 3 mps 753 mmHg 86%
02:00 +16°C° 0 mm 3 mps 753 mmHg 87%
03:00 +16°C° 0 mm 3 mps 753 mmHg 89%
04:00 +16°C° 0 mm 3 mps 752 mmHg 90%
05:00 +17°C° 0.1 mm 3 mps 752 mmHg 89%
06:00 +17°C° 0.1 mm 4 mps 752 mmHg 88%
07:00 +18°C° 0.1 mm 4 mps 752 mmHg 87%
08:00 +20°C° 0 mm 4 mps 752 mmHg 80%
09:00 +22°C° 0 mm 5 mps 752 mmHg 74%
10:00 +24°C° 0 mm 6 mps 751 mmHg 67%
11:00 +26°C° 0.1 mm 6 mps 751 mmHg 63%
12:00 +27°C° 0.1 mm 6 mps 750 mmHg 60%
13:00 +28°C° 0.1 mm 6 mps 749 mmHg 57%
14:00 +28°C° 0.2 mm 5 mps 749 mmHg 57%
15:00 +29°C° 0.2 mm 5 mps 748 mmHg 58%
16:00 +29°C° 0.2 mm 5 mps 748 mmHg 59%
17:00 +28°C° 0.3 mm 5 mps 748 mmHg 62%
18:00 +27°C° 0.3 mm 5 mps 747 mmHg 65%
19:00 +25°C° 0.3 mm 5 mps 747 mmHg 68%
20:00 +22°C° 2.9 mm 4 mps 748 mmHg 76%
21:00 +21°C° 2.9 mm 4 mps 748 mmHg 84%
22:00 +19°C° 2.9 mm 4 mps 749 mmHg 91%
23:00 +18°C° 0.2 mm 4 mps 750 mmHg 89%

11 July, Saturday

Time Temperature Precipitation Wind Pressure Humidity
00:00 +16°C° 0.2 mm 5 mps 750 mmHg 86%
01:00 +15°C° 0.2 mm 5 mps 751 mmHg 84%
02:00 +14°C° 0.1 mm 5 mps 752 mmHg 83%
03:00 +13°C° 0.1 mm 4 mps 752 mmHg 82%
04:00 +12°C° 0.1 mm 4 mps 753 mmHg 81%
05:00 +13°C° 0 mm 4 mps 753 mmHg 78%
06:00 +13°C° 0 mm 5 mps 754 mmHg 75%
07:00 +14°C° 0 mm 6 mps 754 mmHg 73%
08:00 +15°C° 0 mm 6 mps 755 mmHg 68%
09:00 +16°C° 0 mm 6 mps 755 mmHg 64%
10:00 +17°C° 0 mm 6 mps 755 mmHg 59%
11:00 +17°C° 0 mm 6 mps 755 mmHg 59%
12:00 +19°C° 0 mm 5 mps 755 mmHg 58%
13:00 +19°C° 0 mm 5 mps 755 mmHg 58%
14:00 +19°C° 0.1 mm 5 mps 755 mmHg 58%
15:00 +19°C° 0.1 mm 5 mps 755 mmHg 58%
16:00 +19°C° 0.1 mm 4 mps 755 mmHg 58%
17:00 +18°C° 0.1 mm 4 mps 755 mmHg 63%
18:00 +17°C° 0.1 mm 3 mps 755 mmHg 68%
19:00 +16°C° 0.1 mm 2 mps 755 mmHg 73%
20:00 +15°C° 0 mm 2 mps 756 mmHg 74%
21:00 +14°C° 0 mm 2 mps 756 mmHg 75%
22:00 +14°C° 0 mm 2 mps 756 mmHg 76%
23:00 +13°C° 0 mm 2 mps 756 mmHg 78%

12 July, Sunday

Time Temperature Precipitation Wind Pressure Humidity
00:00 +11°C° 0 mm 3 mps 756 mmHg 80%
01:00 +11°C° 0 mm 3 mps 756 mmHg 82%
02:00 +10°C° 0 mm 3 mps 756 mmHg 84%
03:00 +10°C° 0 mm 2 mps 757 mmHg 86%
04:00 +10°C° 0 mm 2 mps 757 mmHg 88%
05:00 +11°C° 0 mm 3 mps 757 mmHg 83%
06:00 +13°C° 0 mm 3 mps 757 mmHg 77%
07:00 +14°C° 0 mm 3 mps 757 mmHg 71%
08:00 +15°C° 0.1 mm 4 mps 757 mmHg 68%
09:00 +17°C° 0.1 mm 4 mps 757 mmHg 64%
10:00 +17°C° 0.1 mm 5 mps 758 mmHg 60%
11:00 +17°C° 0.1 mm 5 mps 758 mmHg 58%
12:00 +19°C° 0.1 mm 5 mps 758 mmHg 56%
13:00 +19°C° 0.1 mm 6 mps 758 mmHg 54%
14:00 +19°C° 0.1 mm 6 mps 758 mmHg 54%
15:00 +19°C° 0.1 mm 6 mps 758 mmHg 55%
16:00 +19°C° 0.1 mm 6 mps 758 mmHg 56%
17:00 +17°C° 0 mm 5 mps 758 mmHg 62%
18:00 +17°C° 0 mm 4 mps 758 mmHg 68%
19:00 +16°C° 0 mm 3 mps 758 mmHg 74%
20:00 +14°C° 0 mm 3 mps 758 mmHg 77%
21:00 +13°C° 0 mm 2 mps 758 mmHg 81%
22:00 +12°C° 0 mm 2 mps 759 mmHg 84%
23:00 +12°C° 0 mm 2 mps 759 mmHg 86%
Show more